Regional Weather Roundup
Issued by NWS

Home | Current Version | Previous Version | Text Only | Print | Product List | Glossary On
Versions: 1 2 3 4 5 6 7 8 9 10 11 12 13 14 15 16 17 18 19 20 21 22 23 24 25 26 27 28 29 30 31 32 33 34 35 36 37 38 39 40 41 42 43 44 45 46 47 48 49 50
000
ASUS43 KLSX 262007
RWRMO

WEATHER SUMMARY FOR MISSOURI
NATIONAL WEATHER SERVICE SPRINGFIELD MO
300 PM CDT SUN APR 26 2015

NOTE: "FAIR" INDICATES FEW OR NO CLOUDS BELOW 12,000 FEET WITH NO
       SIGNIFICANT WEATHER AND/OR OBSTRUCTIONS TO VISIBILITY.
       CURRENT SKY AND/OR WEATHER CONDITIONS ARE NOT AVAILABLE FOR
       CHILLICOTHE AND FARMINGTON.

MOZ001>031-035>038-043-044-053-054-262100-
...NORTHERN AND WESTERN MISSOURI...

CITY           SKY/WX    TMP DP  RH WIND       PRES   REMARKS
KANSAS CTY INT MOSUNNY   58  43  57 E10G21    29.96F
KANSAS C DTWN  LGT RAIN  60  43  53 NE16G24   29.95F
LEE`S SUMMIT   MOSUNNY   59  43  55 E14       29.95F
ST JOSEPH      SUNNY     63  41  44 E12G20    29.97F
CHILLICOTHE      N/A     63  40  42 VRB6      29.99F
KIRKSVILLE     SUNNY     61  37  41 NE14      30.00F

$$
MOZ066>068-077>081-088>096-101>105-262100-
...SOUTHWEST MISSOURI...

CITY           SKY/WX    TMP DP  RH WIND       PRES   REMARKS
SPRINGFIELD    CLOUDY    53  45  74 NE15      29.91S
JOPLIN         CLOUDY    56  48  74 NE14      29.88F

$$
MOZ032>034-039>042-045>050-055>058-069>072-262100-
...CENTRAL MISSOURI...

CITY           SKY/WX    TMP DP  RH WIND       PRES   REMARKS
COLUMBIA       SUNNY     61  38  42 NE14      29.95F
JEFFERSON CITY SUNNY     63  34  33 N9G20     29.93F
ROLLA          MOSUNNY   60  43  53 N9        29.91S
SEDALIA        SUNNY     62  40  44 NE20      29.96S
WHITEMAN AFB   PTSUNNY   61  43  52 NE15      29.94F
WARRENSBURG    MOSUNNY   61  43  51 NE12      29.95F
OSAGE BEACH    CLOUDY    59  43  55 NE8       29.92F

$$
MOZ051-052-059>065-262100-
...EAST CENTRAL MISSOURI...

CITY           SKY/WX    TMP DP  RH WIND       PRES   REMARKS
ST LOUIS INTL  MOSUNNY   63  35  35 NE13G21   29.94F
SPIRIT OF STL  SUNNY     62  37  39 NE14G22   29.93F
ST CHARLES     SUNNY     61  39  44 E14G23    29.94F

$$
MOZ072>076-082>087-097>100-106>115-262100-
...SOUTH CENTRAL AND SOUTHEAST MISSOURI...

CITY           SKY/WX    TMP DP  RH WIND       PRES   REMARKS
CAPE GIRARDEAU PTSUNNY   63  46  54 NE9G20    29.88S
FARMINGTON     SUNNY     61  39  44 NE10G16   29.94F
POPLAR BLUFF   PTSUNNY   61  47  59 NE10      29.87F
WEST PLAINS    CLOUDY    53  45  74 NE8       29.92R

$$


USA.gov is the U.S. government's official web portal to all federal, state and local government web resources and services.